Regional Weather Roundup
Issued by NWS

Home | Current Version | Previous Version | Graphics & Text | Print | Product List | Glossary On
Versions: 1 2 3 4 5 6 7 8 9 10 11 12 13 14 15 16 17 18 19 20 21 22 23 24 25 26 27 28 29 30 31 32 33 34 35 36 37 38 39 40 41 42 43 44 45 46 47 48 49 50
000
ASUS43 KBIS 180102
RWRND

NORTH DAKOTA REGIONAL WEATHER ROUNDUP
NATIONAL WEATHER SERVICE BISMARCK ND
800 PM CDT THU AUG 17 2017

NOTE: "FAIR" INDICATES FEW OR NO CLOUDS BELOW 12,000 FEET WITH NO
SIGNIFICANT WEATHER AND/OR OBSTRUCTIONS TO VISIBILITY.


NDZ001>003-009>011-017-180200-
NORTHWEST NORTH DAKOTA

CITY           SKY/WX    TMP DP  RH WIND       PRES   REMARKS
WILLISTON      LGT RAIN  74  49  41 N13       29.84F
MINOT          MOCLDY    79  53  40 E8        29.81S
MINOT AFB      MOCLDY    79  53  40 E15       29.80S
$$

NDZ018>021-031>035-040>046-180200-
SOUTHWEST NORTH DAKOTA

CITY           SKY/WX    TMP DP  RH WIND       PRES   REMARKS
BISMARCK       CLOUDY    75  60  59 S6        29.82F
DICKINSON      CLOUDY    75  45  34 NW8       29.87S
GARRISON         N/A     77  64  64 SE7       29.80S
HETTINGER ARPT MOCLDY    74  58  57 W5        29.90S
$$

NDZ004>008-012>016-024-026-027-054-180200-
NORTHEAST NORTH DAKOTA

CITY           SKY/WX    TMP DP  RH WIND       PRES   REMARKS
GRAND FORKS    PTCLDY    77  61  57 E5        29.81F
GRND FRKS AFB  PTCLDY    81  63  54 N1        29.88S
DEVILS LAKE    PTCLDY    75  59  57 S3        29.86F
$$

NDZ022-023-025-028>030-036>039-047>053-180200-
SOUTHEAST NORTH DAKOTA

CITY           SKY/WX    TMP DP  RH WIND       PRES   REMARKS
FARGO          CLEAR     74  60  61 NE3       29.83F
JAMESTOWN      CLEAR     71  63  75 E3        29.85F
$$




USA.gov is the U.S. government's official web portal to all federal, state and local government web resources and services.